Location: Akgöl Batakl???
(38.9482°N, 31.8837°E)
Time: 10:46:06
(UTC+00:00)

ATLAS 5 CENTAUR R/B - Pass Details

Date: 08 May 2026
Orbit: 298 x 12792 km, 60.8° (Epoch: 6 June)

Event Time Altitude Azimuth Distance (km) Brightness Sun altitude
Exits shadow 23:19:55 75° 151° (SSE) 1,127 3.1 -29.9°
Maximum altitude 23:20:12 77° 122° (ESE) 1,160 3.2 -29.8°
Drops below altitude 10° 23:34:59 10° 39° (NE) 6,733 8.2 -28.5°
Sets 23:44:10 0° 39° (NE) 9,816 9.4 -27.6°
